Location: Unspecified
(38.9820°N, 94.4650°W)
Time: 01:08:17
(UTC-05:00)

Resurs 1-4 Rocket - Visible Passes

Search period start: 01 November 2014 00:00
Search period end: 10 November 2014 23:00
Orbit: 801 x 814 km, 98.4° (Epoch: 30 October)

Date Brightness Start Highest point End Pass type
(mag) Time Alt. Az. Time Alt. Az. Time Alt. Az.
01 Nov 3.2 04:47:10 10° NNE 04:51:33 42° ENE 04:51:33 42° ENE visible
01 Nov 3.2 06:27:43 10° NNW 06:31:45 23° WNW 06:32:37 22° W visible
02 Nov 4.1 03:23:16 10° NE 03:26:35 24° ENE 03:26:35 24° ENE visible
02 Nov 2.6 05:02:44 10° N 05:07:33 37° WNW 05:07:40 37° WNW visible
03 Nov 4.8 03:00:00 10° NE 03:01:37 14° ENE 03:01:37 14° ENE visible
03 Nov 2.1 04:38:02 10° N 04:42:42 58° NW 04:42:42 58° NW visible
04 Nov 2.5 04:13:33 10° NNE 04:17:44 56° NNE 04:17:44 56° NNE visible
04 Nov 3.7 05:55:40 10° NW 05:58:00 13° WNW 05:58:48 13° WNW visible
05 Nov 3.4 03:49:19 10° NNE 03:52:46 35° NE 03:52:46 35° NE visible
05 Nov 3.2 05:30:00 10° NNW 05:33:51 21° WNW 05:33:51 21° WNW visible
06 Nov 4.3 03:25:22 10° NE 03:27:48 22° ENE 03:27:48 22° ENE visible
06 Nov 2.8 05:04:58 10° N 05:08:53 33° NW 05:08:53 33° NW visible
07 Nov 4.9 03:01:59 10° NE 03:02:51 13° ENE 03:02:51 13° ENE visible
07 Nov 2.6 04:40:14 10° N 04:43:55 42° NNW 04:43:55 42° NNW visible
08 Nov 3.0 04:15:44 10° NNE 04:18:58 39° NNE 04:18:58 39° NNE visible
08 Nov 3.8 05:58:06 10° NW 06:00:02 12° WNW 06:00:02 12° WNW visible
09 Nov 3.8 03:51:27 10° NNE 03:54:00 27° NE 03:54:00 27° NE visible
09 Nov 3.4 05:32:16 10° NNW 05:35:05 19° NW 05:35:05 19° NW visible
10 Nov 4.5 03:27:28 10° NE 03:29:03 18° NE 03:29:03 18° NE visible
10 Nov 3.2 05:07:11 10° N 05:10:07 26° NNW 05:10:07 26° NNW visible
